Regional Weather Roundup
Issued by NWS

Home | Current Version | Previous Version | Text Only | Print | Product List | Glossary Off
Versions: 1 2 3 4 5 6 7 8 9 10 11 12 13 14 15 16 17 18 19 20 21 22 23 24 25 26 27 28 29 30 31 32 33 34 35 36 37 38 39 40 41 42 43 44 45 46 47 48 49 50

000
ASUS45 KTFX 230910
RWRMT
MONTANA REGIONAL WEATHER ROUNDUP
NATIONAL WEATHER SERVICE GREAT FALLS MT
300 AM MDT SAT SEP 23 2017

NOTE: "FAIR" INDICATES FEW OR NO CLOUDS BELOW 12000 FEET WITH NO
SIGNIFICANT WEATHER AND/OR OBSTRUCTIONS TO VISIBILITY.

MTZ001>007-043-231000-
WEST OF THE DIVIDE

CITY           SKY/WX    TMP DP  RH WIND       PRES   REMARKS
MISSOULA       CLOUDY    35  34  96 CALM      30.08R
BUTTE          CLOUDY    32  31  96 N3        30.04S
MULLAN PASS    CLOUDY    31  29  92 S3        30.02S FOG
ANACONDA         N/A     34  28  80 CALM      30.04F
DEER LODGE       N/A     34  30  86 CALM      30.07S
EUREKA           N/A     45  36  70 CALM      30.04S
HAMILTON         N/A     36  34  93 CALM      30.06S
LIBBY            N/A     43  37  81 CALM      30.03S
$$

MTZ008-052>055-231000-
SOUTHWEST MONTANA

CITY           SKY/WX    TMP DP  RH WIND       PRES   REMARKS
BOZEMAN        CLOUDY    37  35  92 CALM      30.06R
DILLON         CLOUDY    35  32  88 NE3       30.03S
W YELLOWSTONE  CLOUDY    34  32  93 MISG      30.02R
ENNIS          CLOUDY    34  34 100 CALM      30.08S FOG
THREE FORKS      N/A     38  35  89 NW6       30.05R
$$

MTZ009-010-012-014-046-048-049-054-231000-
EAST SLOPES AND CENTRAL MONTANA

CITY           SKY/WX    TMP DP  RH WIND       PRES   REMARKS
CUT BANK       CLOUDY    34  34 100 CALM      30.04F
GREAT FALLS    LGT RAIN  36  34  92 W5        30.08S
MALMSTROM AFB  CLOUDY    37  37  98 W3        30.09R
HELENA         CLOUDY    38  35  89 NW6       30.06F
BOWMANS CRNR   CLOUDY    32  32 100 CALM      30.04F
CHOTEAU          N/A     34  34 100 S5        30.07F
FAIRFIELD      CLOUDY    35  33  93 SE3       30.06S
POWER          CLOUDY    35  34  97 CALM      30.07S
RAYNESFORD     CLOUDY    36  37 100 NW6       30.07S FOG     WCI  32
ULM            LGT RAIN  35  36 100 W3        30.08S
$$

MTZ011-013-016-021-045-047-050-051-231000-
NORTH CENTRAL MONTANA

CITY           SKY/WX    TMP DP  RH WIND       PRES   REMARKS
HAVRE          CLOUDY    43  37  79 SW5       30.07F
LEWISTOWN      LGT RAIN  37  36  96 E5        30.06S
N BAR RANCH    MOCLDY    34  34 100 CALM      30.08S
CHINOOK          N/A     43  39  87 CALM      30.08S
DENTON           N/A     38  38  97 CALM      30.04S
GEYSER         LGT RAIN  37  37 100 NE3       30.05F FOG
JUDITH GAP     LGT RAIN  34  33  96 S8        30.05S WCI  27
WINIFRED       LGT RAIN  38  38  98 E6        30.06S
$$

MTZ017>020-022>027-061-062-231000-
NORTHEAST MONTANA

CITY           SKY/WX    TMP DP  RH WIND       PRES   REMARKS
GLASGOW        CLOUDY    43  41  93 E5        30.07F
JORDAN           N/A     44  41  89 CALM      30.08S
SIDNEY         CLOUDY    43  40  89 N7        30.09F
WOLF POINT     CLOUDY    41  39  93 NE3       30.10F
MALTA          CLOUDY    43  41  93 CALM      30.09R
POPLAR           N/A     37  36  93 N5        30.10F
$$

MTZ028>42-056>058-231000-
SOUTHCENTRAL AND SOUTHEAST MONTANA

CITY           SKY/WX    TMP DP  RH WIND       PRES   REMARKS
BAKER          CLOUDY    42  37  82 N8        30.07S
BILLINGS       CLOUDY    39  38  96 NE14      30.04F WCI  31
LIVINGSTON     CLOUDY    35  33  92 E5        30.04F
MILES CITY     CLOUDY    43  38  82 NE6       30.08R
BIG TIMBER     CLOUDY    32  32 100 N5        30.08R FOG
HARLOWTON      LGT RAIN  34  33  96 MISG      30.06S
LAUREL           N/A     39  39 100 NE8       30.06S
$$

REGIONAL REPORTS...DAKOTAS

CITY           SKY/WX    TMP DP  RH WIND       PRES   REMARKS
WILLISTON      CLOUDY    44  42  93 N5        30.09R
MINOT          CLOUDY    48  45  89 N6        30.05S
BEACH          CLOUDY    41  41 100 N12       30.09F
CROSBY         CLOUDY    43  43 100 NW7       30.10R
TIOGA          CLOUDY    43  43 100 N6        30.08S
WATFORD CITY   CLOUDY    45  43  93 NW6       30.08R
BISMARCK       CLOUDY    49  47  93 NW12      30.01R
GRAND FORKS    CLOUDY    51  51 100 NW15      29.91S
FARGO          CLOUDY    54  52  93 NW15      29.91R
BUFFALO SD       N/A     42  39  89 N7        30.00R
$$

REGIONAL REPORTS...WYOMING/IDAHO/WASHINGTON

CITY           SKY/WX    TMP DP  RH WIND       PRES   REMARKS
GILLETTE       CLOUDY    40  36  86 N9        30.05R
SHERIDAN       CLOUDY    40  39  97 S3        30.05S
BUFFALO WY     CLOUDY    38  35  89 SE6       30.06S
CODY           CLOUDY    36  34  92 N3        30.04S
IDAHO FALLS    CLEAR     35  33  92 SE5       30.03R
SALMON         CLOUDY    43  32  65 CALM      30.03S
BOISE          CLEAR     38  35  89 CALM      30.01S
SPOKANE        CLOUDY    46  41  82 S6        30.03S
$$

REGIONAL REPORTS...ALBERTA

CITY           SKY/WX    TMP DP  RH WIND       PRES   REMARKS
EDMONTON       CLOUDY    39  39 100 SE2       30.05R
CALGARY        CLOUDY    37  34  87 S5        30.02F
LETHBRIDGE     CLOUDY    39  34  81 S8        30.04F
MEDICINE HAT   CLOUDY    39  36  87 W2        30.05F
$$

REGIONAL REPORTS...SASKATCHEWAN

CITY           SKY/WX    TMP DP  RH WIND       PRES   REMARKS
SWIFT CURRENT    N/A     39  32  75 SW5       30.07R
REGINA         CLOUDY    41  39  93 W5        30.09R
SASKATOON      MOCLDY    39  39 100 CALM      30.09S
$$



USA.gov is the U.S. government's official web portal to all federal, state and local government web resources and services.